Time,TemperatureF,DewpointF,PressureIn,WindDirection,WindDirectionDegrees,WindSpeedMPH,WindSpeedGustMPH,Humidity,HourlyPrecipIn,Conditions,Clouds,dailyrainin,SolarRadiationWatts/m^2,SoftwareType,DateUTC
2013-05-12 00:02:00,65.0,48.0,-100.00,ESE,105,4.0,5.0,55,0.00,,,0.00,0.000000,,2013-05-12 05:02:00,
2013-05-12 00:32:00,64.0,48.0,-100.00,NNW,331,1.0,5.0,57,0.00,,,0.00,0.000000,,2013-05-12 05:32:00,
2013-05-12 00:42:00,64.0,48.0,-100.00,NNW,331,1.0,5.0,57,0.00,,,0.00,0.000000,,2013-05-12 05:42:00,
2013-05-12 00:52:00,64.0,48.0,-100.00,NNW,331,1.0,5.0,57,0.00,,,0.00,0.000000,,2013-05-12 05:52:00,
2013-05-12 01:01:00,64.0,48.0,-100.00,NNW,331,1.0,5.0,57,0.00,,,0.00,0.000000,,2013-05-12 06:01:00,
2013-05-12 01:32:00,63.0,48.0,-100.00,SSW,213,0.0,4.0,58,0.00,,,0.00,0.000000,,2013-05-12 06:32:00,
2013-05-12 01:42:00,63.0,48.0,-100.00,SSW,213,0.0,4.0,58,0.00,,,0.00,0.000000,,2013-05-12 06:42:00,
2013-05-12 01:52:00,63.0,48.0,-100.00,SSW,213,0.0,4.0,58,0.00,,,0.00,0.000000,,2013-05-12 06:52:00,
2013-05-12 02:01:00,63.0,48.0,-100.00,SSW,213,0.0,4.0,58,0.00,,,0.00,0.000000,,2013-05-12 07:01:00,
2013-05-12 02:32:00,62.0,50.0,-100.00,North,357,4.0,6.0,65,0.00,,,0.00,0.000000,,2013-05-12 07:32:00,
2013-05-12 02:42:00,62.0,50.0,-100.00,North,357,4.0,6.0,65,0.00,,,0.00,0.000000,,2013-05-12 07:42:00,
2013-05-12 02:52:00,62.0,50.0,-100.00,North,357,4.0,6.0,65,0.00,,,0.00,0.000000,,2013-05-12 07:52:00,
2013-05-12 03:02:00,62.0,50.0,-100.00,North,357,4.0,6.0,65,0.00,,,0.00,0.000000,,2013-05-12 08:02:00,
2013-05-12 03:32:00,60.0,53.0,-100.00,NNW,333,4.0,6.0,77,0.00,,,0.00,0.000000,,2013-05-12 08:32:00,
2013-05-12 03:42:00,60.0,53.0,-100.00,NNW,333,4.0,6.0,77,0.00,,,0.00,0.000000,,2013-05-12 08:42:00,
2013-05-12 03:53:00,60.0,53.0,-100.00,NNW,333,4.0,6.0,77,0.00,,,0.00,0.000000,,2013-05-12 08:53:00,
2013-05-12 04:01:00,60.0,53.0,-100.00,NNW,333,4.0,6.0,77,0.00,,,0.00,0.000000,,2013-05-12 09:01:00,
2013-05-12 04:33:00,59.0,54.0,-100.00,NNW,347,5.0,7.0,82,0.00,,,0.00,0.000000,,2013-05-12 09:33:00,
2013-05-12 04:43:00,59.0,54.0,-100.00,NNW,347,5.0,7.0,82,0.00,,,0.00,0.000000,,2013-05-12 09:43:00,
2013-05-12 04:53:00,59.0,54.0,-100.00,NNW,347,5.0,7.0,82,0.00,,,0.00,0.000000,,2013-05-12 09:53:00,
2013-05-12 05:03:00,59.0,54.0,-100.00,NNW,347,5.0,7.0,82,0.00,,,0.00,0.000000,,2013-05-12 10:03:00,
2013-05-12 05:33:00,56.0,52.0,-100.00,SSE,153,3.0,5.0,88,0.00,,,0.00,0.000000,,2013-05-12 10:33:00,
2013-05-12 05:42:00,56.0,52.0,-100.00,SSE,153,3.0,5.0,88,0.00,,,0.00,0.000000,,2013-05-12 10:42:00,
2013-05-12 05:52:00,56.0,52.0,-100.00,SSE,153,3.0,5.0,88,0.00,,,0.00,0.000000,,2013-05-12 10:52:00,
2013-05-12 06:02:00,56.0,52.0,-100.00,SSE,153,3.0,5.0,88,0.00,,,0.00,0.000000,,2013-05-12 11:02:00,
2013-05-12 06:32:00,56.0,53.0,-100.00,North,9,3.0,4.0,91,0.00,,,0.00,0.000000,,2013-05-12 11:32:00,
2013-05-12 06:42:00,56.0,53.0,-100.00,North,9,3.0,4.0,91,0.00,,,0.00,0.000000,,2013-05-12 11:42:00,
2013-05-12 06:52:00,56.0,53.0,-100.00,North,9,3.0,4.0,91,0.00,,,0.00,0.000000,,2013-05-12 11:52:00,
2013-05-12 07:02:00,56.0,53.0,-100.00,North,9,3.0,4.0,91,0.00,,,0.00,0.000000,,2013-05-12 12:02:00,
2013-05-12 08:32:00,59.0,52.0,-100.00,SSE,150,1.0,5.0,78,-99.99,,,0.00,105.000000,,2013-05-12 13:32:00,
2013-05-12 08:42:00,59.0,52.0,-100.00,SSE,150,1.0,5.0,78,-99.99,,,0.00,105.000000,,2013-05-12 13:42:00,
2013-05-12 08:52:00,59.0,52.0,-100.00,SSE,150,1.0,5.0,78,-99.99,,,0.00,105.000000,,2013-05-12 13:52:00,
2013-05-12 09:01:00,59.0,52.0,-100.00,SSE,150,1.0,5.0,78,-99.99,,,0.00,105.000000,,2013-05-12 14:01:00,
2013-05-12 09:32:00,62.0,51.0,-100.00,East,90,9.0,15.0,67,0.00,,,0.00,240.000000,,2013-05-12 14:32:00,
2013-05-12 09:42:00,62.0,51.0,-100.00,East,90,9.0,15.0,67,0.00,,,0.00,240.000000,,2013-05-12 14:42:00,
2013-05-12 09:52:00,62.0,51.0,-100.00,East,90,9.0,15.0,67,0.00,,,0.00,240.000000,,2013-05-12 14:52:00,
2013-05-12 10:01:00,62.0,51.0,-100.00,East,90,9.0,15.0,67,0.00,,,0.00,240.000000,,2013-05-12 15:01:00,
2013-05-12 10:34:00,64.0,50.0,-100.00,East,95,12.0,16.0,60,0.00,,,-99.99,380.000000,,2013-05-12 15:34:00,
2013-05-12 10:42:00,64.0,50.0,-100.00,East,95,12.0,16.0,60,0.00,,,-99.99,380.000000,,2013-05-12 15:42:00,
2013-05-12 10:53:00,64.0,50.0,-100.00,East,95,12.0,16.0,60,0.00,,,-99.99,380.000000,,2013-05-12 15:53:00,
2013-05-12 11:02:00,64.0,50.0,-100.00,East,95,12.0,16.0,60,0.00,,,-99.99,380.000000,,2013-05-12 16:02:00,
2013-05-12 11:33:00,68.0,52.0,-100.00,East,95,9.0,17.0,56,0.00,,,0.00,652.000000,,2013-05-12 16:33:00,
2013-05-12 11:42:00,68.0,52.0,-100.00,East,95,9.0,17.0,56,0.00,,,0.00,652.000000,,2013-05-12 16:42:00,
2013-05-12 11:53:00,68.0,52.0,-100.00,East,95,9.0,17.0,56,0.00,,,0.00,652.000000,,2013-05-12 16:53:00,
2013-05-12 12:02:00,68.0,52.0,-100.00,East,95,9.0,17.0,56,0.00,,,0.00,652.000000,,2013-05-12 17:02:00,
2013-05-12 12:32:00,71.0,51.0,-100.00,ESE,107,9.0,14.0,50,0.00,,,-99.99,872.000000,,2013-05-12 17:32:00,
2013-05-12 12:42:00,71.0,51.0,-100.00,ESE,107,9.0,14.0,50,0.00,,,-99.99,872.000000,,2013-05-12 17:42:00,
2013-05-12 12:53:00,71.0,51.0,-100.00,ESE,107,9.0,14.0,50,0.00,,,-99.99,872.000000,,2013-05-12 17:53:00,
2013-05-12 13:01:00,71.0,51.0,-100.00,ESE,107,9.0,14.0,50,0.00,,,-99.99,872.000000,,2013-05-12 18:01:00,
2013-05-12 13:32:00,74.0,52.0,-100.00,ESE,112,6.0,15.0,46,0.00,,,0.00,1048.000000,,2013-05-12 18:32:00,
2013-05-12 13:42:00,74.0,52.0,-100.00,ESE,112,6.0,15.0,46,0.00,,,0.00,1048.000000,,2013-05-12 18:42:00,
2013-05-12 13:52:00,74.0,52.0,-100.00,ESE,112,6.0,15.0,46,0.00,,,0.00,1048.000000,,2013-05-12 18:52:00,
2013-05-12 14:01:00,74.0,52.0,-100.00,ESE,112,6.0,15.0,46,0.00,,,0.00,1048.000000,,2013-05-12 19:01:00,
2013-05-12 14:32:00,75.0,52.0,-100.00,SE,142,7.0,13.0,44,0.00,,,0.00,959.000000,,2013-05-12 19:32:00,
2013-05-12 14:42:00,75.0,52.0,-100.00,SE,142,7.0,13.0,44,0.00,,,0.00,959.000000,,2013-05-12 19:42:00,
2013-05-12 14:52:00,75.0,52.0,-100.00,SE,142,7.0,13.0,44,0.00,,,0.00,959.000000,,2013-05-12 19:52:00,
2013-05-12 15:02:00,75.0,52.0,-100.00,SE,142,7.0,13.0,44,0.00,,,0.00,959.000000,,2013-05-12 20:02:00,
2013-05-12 15:32:00,77.0,50.0,-100.00,East,90,5.0,11.0,39,0.00,,,0.00,965.000000,,2013-05-12 20:32:00,
2013-05-12 15:42:00,77.0,50.0,-100.00,East,90,5.0,11.0,39,0.00,,,0.00,965.000000,,2013-05-12 20:42:00,
2013-05-12 15:52:00,77.0,50.0,-100.00,East,90,5.0,11.0,39,0.00,,,0.00,965.000000,,2013-05-12 20:52:00,
2013-05-12 16:01:00,77.0,50.0,-100.00,East,90,5.0,11.0,39,0.00,,,0.00,965.000000,,2013-05-12 21:01:00,
2013-05-12 16:33:00,78.0,49.0,-100.00,NE,53,8.0,14.0,36,0.00,,,0.00,890.000000,,2013-05-12 21:33:00,
2013-05-12 16:42:00,78.0,49.0,-100.00,NE,53,8.0,14.0,36,0.00,,,0.00,890.000000,,2013-05-12 21:42:00,
2013-05-12 16:53:00,78.0,49.0,-100.00,NE,53,8.0,14.0,36,0.00,,,0.00,890.000000,,2013-05-12 21:53:00,
2013-05-12 17:02:00,78.0,49.0,-100.00,NE,53,8.0,14.0,36,0.00,,,0.00,890.000000,,2013-05-12 22:02:00,
2013-05-12 17:33:00,77.0,44.0,-100.00,ESE,106,8.0,13.0,31,0.00,,,0.00,568.000000,,2013-05-12 22:33:00,
2013-05-12 17:42:00,77.0,44.0,-100.00,ESE,106,8.0,13.0,31,0.00,,,0.00,568.000000,,2013-05-12 22:42:00,
2013-05-12 17:52:00,77.0,44.0,-100.00,ESE,106,8.0,13.0,31,0.00,,,0.00,568.000000,,2013-05-12 22:52:00,
2013-05-12 18:02:00,77.0,44.0,-100.00,ESE,106,8.0,13.0,31,0.00,,,0.00,568.000000,,2013-05-12 23:02:00,
2013-05-12 18:32:00,78.0,48.0,-100.00,ENE,60,7.0,10.0,35,0.00,,,0.00,445.000000,,2013-05-12 23:32:00,
2013-05-12 18:42:00,78.0,48.0,-100.00,ENE,60,7.0,10.0,35,0.00,,,0.00,445.000000,,2013-05-12 23:42:00,
2013-05-12 18:52:00,78.0,48.0,-100.00,ENE,60,7.0,10.0,35,0.00,,,0.00,445.000000,,2013-05-12 23:52:00,
2013-05-12 19:01:00,78.0,48.0,-100.00,ENE,60,7.0,10.0,35,0.00,,,0.00,445.000000,,2013-05-13 00:01:00,
2013-05-12 19:32:00,77.0,48.0,-100.00,ESE,108,6.0,12.0,36,0.00,,,0.00,323.000000,,2013-05-13 00:32:00,
2013-05-12 19:42:00,77.0,48.0,-100.00,ESE,108,6.0,12.0,36,0.00,,,0.00,323.000000,,2013-05-13 00:42:00,
2013-05-12 19:52:00,77.0,48.0,-100.00,ESE,108,6.0,12.0,36,0.00,,,0.00,323.000000,,2013-05-13 00:52:00,
2013-05-12 20:01:00,77.0,48.0,-100.00,ESE,108,6.0,12.0,36,0.00,,,0.00,323.000000,,2013-05-13 01:01:00,
2013-05-12 20:32:00,74.0,46.0,-100.00,East,97,6.0,13.0,37,0.00,,,0.00,106.000000,,2013-05-13 01:32:00,
2013-05-12 20:42:00,74.0,46.0,-100.00,East,97,6.0,13.0,37,0.00,,,0.00,106.000000,,2013-05-13 01:42:00,
2013-05-12 20:52:00,74.0,46.0,-100.00,East,97,6.0,13.0,37,0.00,,,0.00,106.000000,,2013-05-13 01:52:00,
2013-05-12 21:01:00,74.0,46.0,-100.00,East,97,6.0,13.0,37,0.00,,,0.00,106.000000,,2013-05-13 02:01:00,
2013-05-12 21:32:00,68.0,48.0,-100.00,East,99,6.0,10.0,48,0.00,,,0.00,8.000000,,2013-05-13 02:32:00,
2013-05-12 21:42:00,68.0,48.0,-100.00,East,99,6.0,10.0,48,0.00,,,0.00,8.000000,,2013-05-13 02:42:00,
2013-05-12 21:52:00,68.0,48.0,-100.00,East,99,6.0,10.0,48,0.00,,,0.00,8.000000,,2013-05-13 02:52:00,
2013-05-12 22:02:00,68.0,48.0,-100.00,East,99,6.0,10.0,48,0.00,,,0.00,8.000000,,2013-05-13 03:02:00,
2013-05-12 22:33:00,64.0,47.0,-100.00,ESE,117,3.0,6.0,54,0.00,,,0.00,0.000000,,2013-05-13 03:33:00,
2013-05-12 22:42:00,64.0,47.0,-100.00,ESE,117,3.0,6.0,54,0.00,,,0.00,0.000000,,2013-05-13 03:42:00,
2013-05-12 22:53:00,64.0,47.0,-100.00,ESE,117,3.0,6.0,54,0.00,,,0.00,0.000000,,2013-05-13 03:53:00,
2013-05-12 23:02:00,64.0,47.0,-100.00,ESE,117,3.0,6.0,54,0.00,,,0.00,0.000000,,2013-05-13 04:02:00,
2013-05-12 23:33:00,63.0,49.0,-100.00,ESE,111,4.0,5.0,60,0.00,,,0.00,0.000000,,2013-05-13 04:33:00,
2013-05-12 23:42:00,63.0,49.0,-100.00,ESE,111,4.0,5.0,60,0.00,,,0.00,0.000000,,2013-05-13 04:42:00,
2013-05-12 23:53:00,63.0,49.0,-100.00,ESE,111,4.0,5.0,60,0.00,,,0.00,0.000000,,2013-05-13 04:53:00,